TimeEST,TemperatureF,Dew PointF,Humidity,Sea Level PressureIn,VisibilityMPH,Wind Direction,Wind SpeedMPH,Gust SpeedMPH,PrecipitationIn,Events,Conditions,WindDirDegrees,DateUTC
12:53 AM,46.0,30.9,56,30.16,10.0,Calm,Calm,-,N/A,,Partly Cloudy,0,2012-11-20 05:53:00
1:53 AM,46.0,30.0,54,30.14,10.0,South,4.6,-,N/A,,Overcast,180,2012-11-20 06:53:00
2:53 AM,46.9,30.9,54,30.14,10.0,South,4.6,-,N/A,,Scattered Clouds,190,2012-11-20 07:53:00
3:53 AM,46.0,30.9,56,30.14,10.0,Calm,Calm,-,N/A,,Overcast,0,2012-11-20 08:53:00
4:53 AM,44.1,35.1,71,30.13,10.0,South,3.5,-,N/A,,Overcast,180,2012-11-20 09:53:00
5:53 AM,46.9,32.0,56,30.13,10.0,Calm,Calm,-,N/A,,Overcast,0,2012-11-20 10:53:00
6:53 AM,44.1,37.9,79,30.13,9.0,Calm,Calm,-,0.00,Rain,Light Rain,0,2012-11-20 11:53:00
7:53 AM,45.0,37.9,76,30.12,9.0,ESE,3.5,-,0.00,,Overcast,120,2012-11-20 12:53:00
8:53 AM,46.9,36.0,66,30.12,10.0,SE,4.6,-,N/A,,Overcast,140,2012-11-20 13:53:00
9:53 AM,50.0,36.0,59,30.13,10.0,Calm,Calm,-,N/A,,Overcast,0,2012-11-20 14:53:00
10:53 AM,53.1,36.0,52,30.13,10.0,South,3.5,-,N/A,,Overcast,170,2012-11-20 15:53:00
11:53 AM,55.0,34.0,45,30.11,10.0,South,5.8,-,N/A,,Overcast,170,2012-11-20 16:53:00
12:53 PM,55.9,34.0,44,30.09,10.0,SSE,4.6,-,N/A,,Overcast,160,2012-11-20 17:53:00
1:53 PM,57.0,33.1,40,30.07,10.0,SW,5.8,-,N/A,,Overcast,220,2012-11-20 18:53:00
2:53 PM,57.0,34.0,42,30.06,10.0,SSW,3.5,-,N/A,,Overcast,210,2012-11-20 19:53:00
3:53 PM,55.9,36.0,47,30.07,10.0,Calm,Calm,-,N/A,,Overcast,0,2012-11-20 20:53:00
4:53 PM,53.1,39.0,59,30.08,9.0,NW,4.6,-,N/A,,Overcast,320,2012-11-20 21:53:00
5:53 PM,51.1,39.9,66,30.09,9.0,NW,3.5,-,N/A,,Overcast,320,2012-11-20 22:53:00
6:53 PM,50.0,39.9,68,30.12,8.0,NNE,3.5,-,N/A,,Overcast,20,2012-11-20 23:53:00
7:53 PM,50.0,39.9,68,30.13,8.0,Calm,Calm,-,N/A,,Overcast,0,2012-11-21 00:53:00
8:53 PM,50.0,39.9,68,30.13,7.0,Calm,Calm,-,N/A,,Overcast,0,2012-11-21 01:53:00
9:53 PM,48.9,41.0,74,30.13,7.0,Calm,Calm,-,N/A,,Overcast,0,2012-11-21 02:53:00
10:53 PM,48.9,39.9,71,30.14,6.0,Calm,Calm,-,N/A,,Haze,0,2012-11-21 03:53:00
11:53 PM,48.0,41.0,77,30.15,6.0,NNW,3.5,-,N/A,,Haze,330,2012-11-21 04:53:00